Regional Weather Roundup
Issued by NWS Portland, ME

Current Version | Previous Version | Text Only | Print | Product List | Glossary Off
Versions: 1 2 3 4 5 6 7 8 9 10 11 12 13 14 15 16 17 18 19 20 21 22 23 24 25 26 27 28 29 30 31 32 33 34 35 36 37 38 39 40 41 42 43 44 45 46 47 48 49 50
000 ASUS41 KGYX 161810 RWRGYX WEATHER ROUNDUP FOR MAINE AND NEW HAMPSHIRE NATIONAL WEATHER SERVICE GRAY ME 200 PM EDT THU AUG 16 2018 MEZ002-005-006-010-012-015-018-020-021-024-026-027-029-161900- MAINE CITY SKY/WX TMP DP RH WIND PRES REMARKS PORTLAND PTSUNNY 81 68 64 S7 29.95F 6HR MIN TEMP: 75; 6HR MAX TEMP: 83; SANFORD FAIR 84 59 42 NW9G18 29.98S BAR HARBOR PTSUNNY 79 62 56 NW9 29.95R WISCASSET FAIR 84 65 52 VRB6 29.96S 6HR MIN TEMP: 72; 6HR MAX TEMP: 84; ROCKLAND PTSUNNY 81 63 54 W6 29.95R FRYEBURG FAIR 83 54 36 W10G22 29.98S 6HR MIN TEMP: 71; 6HR MAX TEMP: 83; LEWISTONAUBURN FAIR 80 60 50 NW12 29.97R AUGUSTA FAIR 81 57 43 NW10 29.98R 6HR MIN TEMP: 70; 6HR MAX TEMP: 82; 6HR PCP: TRACE; WATERVILLE FAIR 79 56 45 W12G18 29.96R BANGOR FAIR 78 57 48 NW13 29.96S 6HR MIN TEMP: 70; 6HR MAX TEMP: 79; GREENVILLE N/A 70 53 54 N13G22 30.00R 6HR MIN TEMP: 62; 6HR MAX TEMP: 70; MILLINOCKET CLOUDY 74 51 44 NE6 29.98R 6HR MIN TEMP: 66; 6HR MAX TEMP: 76; HOULTON FAIR 72 57 59 N14G20 29.95R 6HR MIN TEMP: 61; 6HR MAX TEMP: 72; PRESQUE ISLE CLOUDY 69 55 60 N10 29.98R 6HR MIN TEMP: 60; 6HR MAX TEMP: 71; FRENCHVILLE FAIR 72 52 49 N12G21 29.99R 6HR MIN TEMP: 60; 6HR MAX TEMP: 72; CARIBOU CLOUDY 70 54 56 N9 29.97R 6HR MIN TEMP: 61; 6HR MAX TEMP: 73; $$ NHZ002-005-008-009-011-012-014-161900- NEW HAMPSHIRE CITY SKY/WX TMP DP RH WIND PRES REMARKS PORTSMOUTH MOSUNNY 85 66 51 NW12 29.95S ROCHESTER FAIR 82 67 60 NW13G22 29.97S 6HR MIN TEMP: 74; 6HR MAX TEMP: 85; MANCHESTER NOT AVBL CONCORD FAIR 86 64 47 N15 29.99R 6HR MIN TEMP: 71; 6HR MAX TEMP: 87; PLYMOUTH FAIR 80 57 44 SW9 30.01S BERLIN FAIR 77 57 50 VRB7 30.03S 6HR MIN TEMP: 67; 6HR MAX TEMP: 77; WHITEFIELD FAIR 76 58 53 NW9 30.04R 6HR MIN TEMP: 68; 6HR MAX TEMP: 77; JAFFREY NOT AVBL LEBANON FAIR 84 58 40 N3 30.02R 6HR MIN TEMP: 69; 6HR MAX TEMP: 85; MT WASHINGTON FOG 48 48 100 NW46G52 N/A VSB 1/16 6HR MIN TEMP: 47; 6HR MAX TEMP: 51; $$ VTZ005-007-008-161900- VERMONT CITY SKY/WX TMP DP RH WIND PRES REMARKS ST JOHNSBURY N/A 75 55 49 MISG 30.03R MONTPELIER FAIR 74 59 59 NW13G21 30.10R BURLINGTON FAIR 78 57 48 N9 30.05S $$ MAZ007-012-024-CTZ003-RIZ002-NYZ038-NYZ072-161900- SOUTHERN NEW ENGLAND AND NY CITY SKY/WX TMP DP RH WIND PRES REMARKS BOSTON FAIR 90 67 46 W12 29.97S HX 93 WORCESTER FAIR 83 69 62 SW13 30.04S NANTUCKET FAIR 83 71 67 W15 30.00S PROVIDENCE FAIR 89 69 51 W14G21 30.00S HX 93 HARTFORD PTSUNNY 88 68 51 W10 30.02S HX 91 ALBANY FAIR 87 69 54 W9 30.03F HX 91 NEW YORK CITY FAIR 91 63 39 W8G18 30.04F HX 92 $$ ANZ081-ANZ082-ANZ150-NHZ014-MEZ023>029-161900- COASTAL MARINE OBSERVATIONS STATION/POSITION TIME TEMP WIND PRES WAVE AIR SEA DIR/SP/G HT/PER (UTC) (F) (DEG/KT/KT) (MB) (FT/S) MOUNT DESERT ROC 1800 63 220/ 16/ 16 1014.0F MATINICUS ROCK 1700 68 250/ 10/ 11 1013.9S ISLE OF SHOALS 1700 79 220/ 7/ 7 1014.2F JEFFREYS LEDGE 1736 69 N/A 2/ 7 $$ .............KEY.............. WCI - WIND CHILL TC - TEMPERATURE IN CELSIUS VSB - VISIBILITY IN MILES HX - HEAT INDEX FAIR- INDICATES FEW OR NO CLOUDS BELOW 12,000 FT, WITH NO SIGNIFICANT WEATHER AND/OR OBSTRUCTIONS TO VISIBILITY.

USA.gov is the U.S. government's official web portal to all federal, state and local government web resources and services.